Location: Garzáin
(43.1301°N, 1.5373°W)
Time: 16:47:59
(UTC+00:00)

Cosmos 2173 Rocket - Visible Passes

Search period start: 17 November 2025 00:00
Search period end: 27 November 2025 00:00
Orbit: 942 x 1000 km, 83.0° (Epoch: 16 November)

Date Brightness Start Highest point End Pass type
(mag) Time Alt. Az. Time Alt. Az. Time Alt. Az.
17 Nov 5.2 17:10:08 10° SSW 17:16:00 44° WNW 17:21:51 10° N visible
18 Nov 6.1 17:35:26 10° SW 17:40:28 26° WNW 17:45:29 10° NNW visible
19 Nov 6.5 18:01:45 10° W 18:05:06 15° WNW 18:08:28 10° NNW visible
21 Nov 5.8 17:02:11 10° SW 17:07:35 31° WNW 17:12:59 10° N visible
22 Nov 6.4 17:28:01 10° WSW 17:32:09 18° WNW 17:36:17 10° NNW visible
23 Nov 6.9 17:56:34 10° WNW 17:56:56 10° WNW 17:57:17 10° WNW visible
26 Nov 6.5 17:21:15 10° W 17:23:55 13° WNW 17:26:35 10° NW visible
